[[{"header":{"parameterUnit":"m.s-1","parameterCategory":1,"la1":30.2991,"la2":30.254,"lo1":-89.0895,"lo2":-89.0444,"dy":0.0017,"dx":0.0017,"nx":28,"ny":28,"refTime":"2025-11-24T09:00:00:Z","depth":0,"parameterNumber":2,"parameterNumberName":"U-component_of_WINDS"},"data":[0,0,0,0,0,0,0,0,0,0,0,0,0,0,0,0,0,0,0,0,0,0,0,0,0,0,0,0,0,0,0,0,0,0,0,0,0,0,0,0,0,0,0,0,0,0,0,0,0,0,0,0,0,0,0,0,0,0,0.7815,0.7815,0,0.7816,0.7816,0.7816,0.7809,0.7809,0.7808,0.7808,0.7809,0.7809,0.7809,0,0,0,0,0,0,0,0,0,0,0,0,0,0.7807,0.7807,0.7815,0.7815,0.7815,0.7816,0.7816,0.7816,0.7809,0.7808,0.7808,0.7808,0.7809,0.7809,0.7809,0,0,0,0,0,0,0,0,0,0,0,0,0,0.7809,0.7807,0.7815,0.7812,0.7811,0.7816,0.7816,0.7816,0.7809,0.7808,0.7808,0.7808,0.7809,0.7809,0.7809,0.7817,0,0,0.781,0.781,0,0,0,0,0,0,0,0,0.7809,0.7809,0.7812,0.7812,0.7812,0.7812,0.7813,0.7816,0.7809,0.781,0.7808,0.7808,0.781,0.781,0.7811,0.7817,0.7817,0.781,0.781,0.781,0.7811,0,0,0,0,0,0,0,0.7809,0.7809,0.7816,0.7812,0.7812,0.781,0.781,0.7814,0.7812,0.781,0.7809,0.7809,0.781,0.7811,0.7811,0.7817,0.781,0.781,0.7811,0.7811,0.7828,0.7829,0,0,0,0,0,0,0.7809,0.7809,0.7816,0.7816,0.781,0.781,0.781,0.7812,0.7812,0.7811,0.781,0.7809,0.781,0.7811,0.7811,0.7819,0.781,0.7811,0.7811,0.7828,0.7828,0.7829,0,0,0,0,0,0,0.7809,0.781,0.7816,0.7812,0.7813,0.7811,0.7813,0.7812,0.7813,0.7812,0.7811,0.7811,0.781,0.7811,0.7815,0.7819,0.7811,0.7811,0.7828,0.7828,0.7829,0.7837,0,0,0,0,0,0,0.7809,0.781,0.7813,0.7812,0.7813,0.782,0.7813,0.7813,0.7814,0.7813,0.7813,0.7812,0.781,0.7815,0.7816,0.782,0.7811,0.7827,0.7828,0.7828,0.7836,0.7838,0.7839,0,0,0,0,0,0.7809,0.7816,0.7814,0.7814,0.7817,0.7821,0.7821,0.7818,0.7814,0.7817,0.7816,0.7812,0.7819,0.7815,0.7816,0.782,0.7827,0.7828,0.7828,0.7836,0.7837,0.7839,0,0,0,0,0,0,0.7818,0.7816,0.7813,0.7821,0.7821,0.7819,0.7824,0.782,0.7822,0.7821,0.7817,0.7817,0.7822,0.7822,0.7818,0.7827,0.7822,0.7823,0.7828,0.7829,0.783,0.783,0.7812,0,0,0,0,0,0.7821,0.7824,0.7822,0.7828,0.7829,0.7826,0.7827,0.7825,0.7825,0.7825,0.7824,0.7824,0.7826,0.7827,0.7829,0.7836,0.7835,0.7839,0.784,0.7841,0.7842,0.7844,0.7846,0.7831,0.7831,0.7831,0,0,0.7827,0.7826,0.7828,0.783,0.783,0.7833,0.7826,0.783,0.7832,0.7826,0.783,0.7829,0.7829,0.7834,0.7837,0.7834,0.7846,0.7842,0.7843,0.7843,0.7845,0.7847,0.7848,0.7831,0.7831,0.7831,0,0,0.7839,0.7839,0.7844,0.7844,0.7844,0.7842,0.7843,0.7841,0.784,0.7845,0.784,0.7842,0.7845,0.7845,0.7845,0.7855,0.7852,0.7856,0.7862,0.7865,0.7866,0.7867,0.787,0.7871,0.7857,0.7857,0.7857,0,0.7847,0.7851,0.7847,0.7851,0.7851,0.7845,0.785,0.785,0.785,0.785,0.7847,0.7851,0.785,0.7855,0.7857,0.7858,0.7858,0.7856,0.7866,0.7867,0.7868,0.7871,0.7872,0.7857,0.7857,0.7857,0.7857,0,0.786,0.7863,0.7867,0.7867,0.7868,0.7872,0.7868,0.7869,0.7866,0.7864,0.7868,0.7867,0.7867,0.7868,0.7866,0.7872,0.787,0.7867,0.7862,0.787,0.7872,0.7874,0.7858,0.7858,0.7858,0.7857,0,0,0.788,0.7876,0.7878,0.7877,0.7875,0.7877,0.7881,0.7881,0.7882,0.7882,0.7884,0.7886,0.7882,0.7882,0.7879,0.7881,0.7888,0.7877,0.7877,0.7879,0.7895,0.7897,0.7899,0.7886,0.7886,0.7886,0.7894,0,0.7892,0.7897,0.7893,0.7899,0.7901,0.7894,0.7897,0.7896,0.7894,0.7894,0.7892,0.7893,0.7888,0.7888,0.789,0.7887,0.7892,0.7887,0.7887,0.7887,0.7888,0.79,0.7904,0.7912,0.7895,0.7896,0.7896,0,0.7907,0.7906,0.7913,0.7909,0.791,0.7912,0.7911,0.7913,0.7911,0.7909,0.7908,0.7904,0.7906,0.7901,0.7903,0.79,0.7899,0.7898,0.7898,0.7898,0.7892,0.7901,0.7914,0.7915,0.7897,0.7897,0.7897,0,0.792,0.7921,0.7924,0.7924,0.792,0.7922,0.792,0.7918,0.7918,0.7917,0.7917,0.7917,0.7916,0.7916,0.7911,0.7908,0.7914,0.7908,0.7912,0.7912,0.7914,0.7914,0.7927,0.7913,0.7913,0.7913,0.7913,0,0.7933,0.7937,0.793,0.7932,0.7936,0.7931,0.7934,0.7932,0.793,0.7931,0.7925,0.7926,0.792,0.792,0.7916,0.7918,0.7918,0.7916,0.7916,0.7917,0.7917,0.7917,0.7916,0.7914,0.7914,0.7914,0.7914,0,0.7949,0.7945,0.7948,0.7943,0.7942,0.7945,0.7941,0.7943,0.7939,0.7941,0.7941,0.7935,0.7935,0.793,0.7929,0.7927,0.793,0.7928,0.7931,0.793,0.7934,0.7933,0.7948,0.7949,0.7935,0.7935,0.7935,0,0.7958,0.7961,0.7956,0.7956,0.7955,0.7956,0.7955,0.7949,0.7949,0.7946,0.7948,0.7947,0.7946,0.7946,0.7942,0.794,0.7938,0.7943,0.7938,0.7939,0.7938,0.7938,0.7938,0.7944,0.7945,0.7945,0.7945,0,0.7975,0.7972,0.7972,0.797,0.797,0.7969,0.7967,0.7967,0.7961,0.7961,0.796,0.7959,0.7957,0.7956,0.7954,0.7952,0.7947,0.7946,0.7947,0.7949,0.795,0.7949,0.7934,0.7946,0.7946,0.7946,0.7946,0.7946,0.7987,0.7989,0.7985,0.7985,0.7983,0.7981,0.7982,0.7978,0.7977,0.7975,0.7972,0.7971,0.7968,0.7964,0.7962,0.7961,0.7959,0.796,0.796,0.7961,0.7961,0.795,0.7961,0.7961,0.7961,0.7961,0.7961,0,0.8003,0.8,0.8,0.7997,0.7996,0.7991,0.7989,0.7988,0.7988,0.7985,0.7984,0.7983,0.7981,0.7976,0.7974,0.7974,0.7972,0.7974,0.7974,0.7973,0.7964,0.7963,0.7976,0.7976,0.7976,0.7976,0.7976,0.7976,0.8011,0.8013,0.801,0.801,0.8007,0.8007,0.8006,0.8004,0.8001,0.8,0.7998,0.7995,0.7991,0.7988,0.7986,0.7985,0.7984,0.7987,0.7984,0.7976,0.7974,0.7973,0.7972,0.7986,0.7986,0.7994,0.7994,0.7994]},{"header":{"parameterUnit":"m.s-1","parameterCategory":1,"la1":30.2991,"la2":30.254,"lo1":-89.0895,"lo2":-89.0444,"dy":0.0017,"dx":0.0017,"nx":28,"ny":28,"refTime":"2025-11-24T09:00:00:Z","depth":0,"parameterNumber":3,"parameterNumberName":"V-component_of_WINDS"},"data":[0,0,0,0,0,0,0,0,0,0,0,0,0,0,0,0,0,0,0,0,0,0,0,0,0,0,0,0,0,0,0,0,0,0,0,0,0,0,0,0,0,0,0,0,0,0,0,0,0,0,0,0,0,0,0,0,0,0,3.314,3.314,0,3.3149,3.315,3.315,3.3137,3.3137,3.3136,3.3136,3.3145,3.3145,3.3146,0,0,0,0,0,0,0,0,0,0,0,0,0,3.3109,3.311,3.314,3.314,3.314,3.3149,3.315,3.315,3.3137,3.3137,3.3136,3.3136,3.3145,3.3145,3.3146,0,0,0,0,0,0,0,0,0,0,0,0,0,3.3121,3.311,3.314,3.3135,3.3135,3.3149,3.315,3.315,3.3138,3.3137,3.3136,3.3136,3.3144,3.3145,3.3146,3.3166,0,0,3.3149,3.315,0,0,0,0,0,0,0,0,3.312,3.3122,3.3136,3.3135,3.3135,3.3142,3.3142,3.3155,3.3138,3.3136,3.3136,3.3135,3.3144,3.3145,3.3148,3.3166,3.3166,3.3149,3.315,3.315,3.3151,0,0,0,0,0,0,0,3.3119,3.3121,3.3144,3.3136,3.3135,3.3132,3.3133,3.3144,3.3144,3.3136,3.3136,3.3137,3.3144,3.3147,3.3148,3.3167,3.3149,3.315,3.3151,3.3151,3.32,3.3201,0,0,0,0,0,0,3.3119,3.3121,3.3143,3.3144,3.3126,3.3133,3.3134,3.314,3.3144,3.3144,3.3138,3.3136,3.3146,3.3147,3.3149,3.3172,3.315,3.3151,3.3152,3.32,3.32,3.3201,0,0,0,0,0,0,3.3119,3.3121,3.3143,3.3132,3.3135,3.3134,3.3141,3.3141,3.3144,3.3145,3.3144,3.3141,3.3146,3.3147,3.3162,3.3172,3.3152,3.3153,3.3199,3.32,3.3201,3.3218,0,0,0,0,0,0,3.3118,3.3121,3.3129,3.3132,3.3135,3.3156,3.3142,3.3141,3.3146,3.3145,3.3148,3.3148,3.3145,3.316,3.3163,3.3173,3.3153,3.3198,3.3199,3.32,3.3216,3.3219,3.3222,0,0,0,0,0,3.3117,3.3133,3.313,3.3132,3.3145,3.3157,3.3158,3.3155,3.3147,3.3155,3.3155,3.3148,3.317,3.3162,3.3164,3.3175,3.3197,3.3199,3.32,3.3215,3.3219,3.3222,0,0,0,0,0,0,3.3131,3.3134,3.313,3.3148,3.3152,3.3155,3.3164,3.3159,3.3165,3.3164,3.3159,3.316,3.3175,3.3176,3.3167,3.3194,3.3182,3.3184,3.3193,3.3196,3.3199,3.3199,3.3154,0,0,0,0,0,3.3136,3.3146,3.3148,3.3163,3.3166,3.3165,3.317,3.3167,3.3171,3.3173,3.3174,3.3178,3.3185,3.3191,3.3198,3.3216,3.3217,3.3225,3.3228,3.323,3.3232,3.3242,3.3245,3.3207,3.3207,3.3206,0,0,3.3147,3.315,3.3156,3.3166,3.3169,3.3179,3.3166,3.3177,3.3184,3.3174,3.3188,3.3189,3.3193,3.3209,3.3216,3.321,3.3243,3.3232,3.3234,3.3235,3.3244,3.3247,3.3251,3.3208,3.3207,3.3207,0,0,3.3173,3.3176,3.3189,3.3192,3.3197,3.3196,3.3199,3.3202,3.3203,3.3216,3.3209,3.3217,3.323,3.3234,3.3237,3.3262,3.3256,3.3265,3.328,3.3289,3.3292,3.3295,3.3304,3.3307,3.3267,3.3267,3.3267,0,3.3186,3.3201,3.3197,3.3208,3.3212,3.3204,3.3217,3.322,3.3227,3.323,3.3223,3.324,3.3242,3.3259,3.3265,3.3268,3.3272,3.3265,3.3292,3.3295,3.3297,3.3306,3.3309,3.3268,3.3268,3.3268,3.3267,0,3.3216,3.3227,3.3237,3.3244,3.3249,3.3262,3.3259,3.3265,3.3261,3.3261,3.3274,3.3276,3.3284,3.3288,3.3284,3.3304,3.33,3.3293,3.3281,3.3302,3.331,3.3313,3.3269,3.3269,3.3269,3.3268,0,0,3.3252,3.3256,3.326,3.3263,3.3267,3.3275,3.3286,3.3294,3.3299,3.3303,3.3313,3.3324,3.3318,3.3321,3.3318,3.3326,3.3346,3.3318,3.3318,3.3323,3.3368,3.3374,3.3378,3.3342,3.3343,3.3343,3.3368,0,3.3277,3.3298,3.3294,3.3314,3.3323,3.3315,3.3325,3.3328,3.3328,3.3335,3.3334,3.3342,3.3333,3.3335,3.3343,3.3342,3.3355,3.334,3.3351,3.3351,3.3351,3.3382,3.3389,3.3412,3.3371,3.3372,3.3372,0,3.331,3.3316,3.3337,3.3339,3.3343,3.3352,3.3358,3.3366,3.3369,3.3368,3.3372,3.3367,3.3378,3.3366,3.3381,3.337,3.3374,3.3375,3.3375,3.3377,3.3363,3.3385,3.342,3.3423,3.3377,3.3377,3.3376,0,3.3334,3.3347,3.3361,3.3364,3.3367,3.3374,3.3375,3.3378,3.3383,3.3388,3.3391,3.3397,3.3401,3.3406,3.3402,3.3393,3.3418,3.3405,3.3417,3.3417,3.3423,3.3423,3.3459,3.3425,3.3425,3.3425,3.3425,0,3.3363,3.3376,3.3372,3.3381,3.3395,3.3391,3.3405,3.3405,3.3407,3.3416,3.3408,3.3416,3.3411,3.3418,3.3415,3.3428,3.343,3.3429,3.3428,3.343,3.343,3.3433,3.3432,3.3426,3.3425,3.3425,3.3425,0,3.3393,3.3391,3.3406,3.3407,3.3408,3.3418,3.3419,3.3427,3.3426,3.3436,3.3439,3.3436,3.3445,3.3441,3.345,3.3448,3.3465,3.3461,3.3464,3.3463,3.3476,3.3475,3.3516,3.3521,3.3482,3.3483,3.3483,0,3.3412,3.3422,3.3424,3.343,3.3432,3.344,3.3445,3.344,3.3445,3.3449,3.3457,3.3464,3.347,3.3483,3.3482,3.3489,3.3486,3.35,3.3487,3.3489,3.3487,3.3486,3.3487,3.3503,3.3503,3.3504,3.3504,0,3.3446,3.3444,3.3452,3.3458,3.3464,3.3469,3.3473,3.3478,3.3473,3.3479,3.3488,3.3492,3.3501,3.3508,3.3514,3.3515,3.3509,3.3508,3.3511,3.3513,3.3515,3.3514,3.3471,3.3507,3.3507,3.3507,3.3506,3.3506,3.3471,3.348,3.3483,3.3491,3.3494,3.3498,3.3505,3.3505,3.3512,3.3519,3.3515,3.3525,3.3527,3.3534,3.3536,3.3543,3.3538,3.3542,3.3544,3.3545,3.3547,3.3513,3.3544,3.3544,3.3544,3.3544,3.3544,0,3.3506,3.3507,3.3514,3.3521,3.3527,3.352,3.3524,3.353,3.3539,3.3542,3.3547,3.3557,3.3564,3.3563,3.357,3.3576,3.3573,3.3578,3.3577,3.3578,3.3551,3.3548,3.358,3.358,3.358,3.358,3.358,3.358,3.3524,3.3538,3.3537,3.3551,3.3552,3.3562,3.3565,3.3569,3.3571,3.3582,3.3588,3.3587,3.3589,3.3595,3.3601,3.3601,3.3604,3.3609,3.3608,3.3583,3.358,3.3576,3.3573,3.361,3.361,3.3634,3.3634,3.3634]}]]